SL-8 R/B

Satellite information

Favourite Embed

Satellite Type and Status

ROCKET BODYIN ORBIT

Key statistics

Satellite SL-8 R/B at a glance.

Uptime

19605

Days in orbit

Revolutions

≈ 13.8

Per day

Orbit

LEO

Low Earth Orbit

Inclination

74.1

Latest

Satellite identification and parameters

Extended collection of information and parameters for SL-8 R/B.

Object identification

Identified? True

Debris? False

Object name: SL-8 R/B

International designator: 1972-009B

Object number (NORAD): 5847

Object ID (CCSDS): 5847

Country: COMMONWEALTH OF INDEPENDENT STATES (CIS)

Current information (Y/N): Y

RCS size: LARGE

Orbital parameters

Period: 104.391 minutes

Inclination: 74.0511 deg

SMA: 7344.045 km

Apoapsis: 988.625 km

Periapsis: 943.194 km

RAAN: 358.0728 deg

Eccentricy: 0.00309305

Argument of periapsis: 325.1484 deg

Mean anomaly: 188.2311 deg

Mean motion: 13.79430428 rev/day

Mean motion (dot): 0.00000076 rev/day2

B* drag term: 0.000096061552 1/REarth

Two-line elements (TLE)

Creation date: Oct. 28, 2025, 2:18 a.m.

Reference frame: TEME

Reference center: EARTH

Epoch: Oct. 27, 2025, 2:43 p.m. UTC

TLE line 0: 0 SL-8 R/B

TLE line 1: 1 05847U 72009B 25300.61347060 .00000076 00000-0 96062-4 0 9999

TLE line 2: 2 05847 74.0511 358.0728 0030930 325.1484 188.2311 13.79430428700911

Live tracking on map

Real-time ground track for satellite SL-8 R/B.

In-orbit conjunctions

A list of the most updated potential collisions computed for object SL-8 R/B.

Target Orbit TCA Probability of collision Miss distance Type
DELTA 1 DEB SSO 2025-10-30 07:42:35 0.000911435 412.0 (m) DEBRIS
THORAD AGENA D DEB SSO 2025-04-21 02:26:57 0.0003017739 537.0 (m) DEBRIS

Associated space launch

The first soviet navigation system called Tsiklon consisted of Zaliv satellites in low earth orbit.

SL-8 R/B was lifted into orbit during the mission ‘Kosmos-3M | Zaliv 10’, on board a Kosmos-3M space rocket.

The launch took place on Feb. 25, 1972, 7:52 a.m. from 132/2.

For more information about the launch, click the button.

Launch to space Kosmos-3M | Zaliv 10
Kosmos-3M | Zaliv 10

Agency: N/A

Status: Launch Successful

Launch date: Feb. 25, 1972, 7:52 a.m. UTC

Rocket: Kosmos-3M

Launch pad: 132/2

Location: Plesetsk Cosmodrome, Russian Federation

...

Latest news about this satellite

There are no fresh news available about this satellite. Check back as we update our databases every day.


Newsletter sign-up

Weekly statistics, charts and insights to help you stay on top of the space industry.